sat.trackr.live / text

‹ back to catalog

STARLINK-32871

NORAD 62924 · 2025-027T

PAYLOAD ACTIVE UNKNOWN

§ Identity

Operator
Country
US
Launch date
2025-02-08
Launch site
AFETR
Launch vehicle
Mass (kg)
RCS (m²)

Purposes: comms

External: N2YO · Heavens-Above · Gunter

§ Orbital elements

Epoch: 2026-09-20T21:03:08.298432Z

Period
94.27 min
Inclination
43.0037°
Eccentricity
0.0000564
Mean motion
15.27592420 rev/d
Perigee alt
482.6 km
Apogee alt
483.4 km
Semi-major
6,861.1 km
B*
5.5783e-4
RAAN
106.5524°
Arg perigee
310.4822°
Mean anomaly
49.5981°
Rev number
9,139

§ Raw data

STARLINK-328711 62924U 25027T   26263.87717938  .00015125  00000+0  55783-3 0  99922 62924  43.0037 106.5524 0000564 310.4822  49.5981 15.27592420 91395

JSON: /api/v1/satellites/62924 · /tle

For live sub-satellite position, see the globe view (requires WebGL).

§ Visibility from observer

Set your observer location to see the next 7 days of passes ≥ 10°. The values pass through the URL so the page stays shareable.

No JS? Fill the form by hand. The geolocation button needs JavaScript.